This is the latest recevied weather packets stored in our database for station/object KF0EZB. If no packets are shown the sender has not sent any weather packets the latest 10 day(s).
| Time | Temp. | Humidity | Pressure | Rain* | Wind** | Luminosity | Snow |
|---|---|---|---|---|---|---|---|
| 1777931829 | 31.11° C | 20% | 1000.5 hPa | 0 mm | - | 463 W/m² | - |
| 1777931526 | 30.56° C | 18% | 1000.5 hPa | 0 mm | - | 466 W/m² | - |
| 1777931221 | 30.56° C | 19% | 1000.4 hPa | 0 mm | - | 446 W/m² | - |
| 1777930918 | 30.56° C | 18% | 1000.7 hPa | 0 mm | - | 516 W/m² | - |
| 1777930615 | 30° C | 18% | 1000.4 hPa | 0 mm | - | 291 W/m² | - |
| 1777930311 | 30° C | 19% | 1000.9 hPa | 0 mm | - | 276 W/m² | - |
| 1777930008 | 30.56° C | 19% | 1000.8 hPa | 0 mm | - | 405 W/m² | - |
| 1777929704 | 30.56° C | 19% | 1000.8 hPa | 0 mm | - | 236 W/m² | - |
| 1777929402 | 31.11° C | 20% | 1001 hPa | 0 mm | - | 468 W/m² | - |
| 1777929098 | 30.56° C | 21% | 1001.2 hPa | 0 mm | - | 614 W/m² | - |
| 1777928796 | 30.56° C | 20% | 1001 hPa | 0 mm | - | 581 W/m² | - |
| 1777928492 | 30° C | 20% | 1001.2 hPa | 0 mm | - | 555 W/m² | - |
| 1777928190 | 30° C | 19% | 1001.2 hPa | 0 mm | - | 311 W/m² | - |
| 1777927887 | 30.56° C | 19% | 1001.2 hPa | 0 mm | - | 554 W/m² | - |
| 1777927586 | 30.56° C | 21% | 1001.4 hPa | 0 mm | - | 537 W/m² | - |
| 1777927284 | 30° C | 19% | 1001.4 hPa | 0 mm | - | 575 W/m² | - |
| 1777926982 | 30.56° C | 18% | 1001.6 hPa | 0 mm | - | 546 W/m² | - |
| 1777926680 | 30.56° C | 19% | 1001.7 hPa | 0 mm | - | 586 W/m² | - |
| 1777926374 | 30.56° C | 21% | 1001.8 hPa | 0 mm | - | 646 W/m² | - |
| 1777926071 | 31.11° C | 19% | 1002 hPa | 0 mm | - | 578 W/m² | - |
| 1777925768 | 30.56° C | 20% | 1002 hPa | 0 mm | - | 661 W/m² | - |
| 1777925466 | 30.56° C | 19% | 1002.1 hPa | 0 mm | - | 695 W/m² | - |
| 1777925163 | 30° C | 20% | 1002.1 hPa | 0 mm | - | 761 W/m² | - |
| 1777924859 | 30.56° C | 19% | 1002.3 hPa | 0 mm | - | 757 W/m² | - |
| 1777924555 | 30.56° C | 19% | 1002.1 hPa | 0 mm | - | 704 W/m² | - |
* Rain latest hour (hover to see other rain measurements)
** Current wind speed in m/s (hover to see current wind gust speed)